Airfield :
LOGIN :

Register | Disclaimer

   EN    FR    IT 

 










Legend :    VFR   Marginal VFR   IFR   Intensive IFR   Very Intensive IFR
Visi :
Ceiling :
>= 8 km
>= 3000ft
5 to 8 km
1000 to 3000 ft
1500m to 5 km
500 to 1000 ft
800 to 1500m
200 to 500 ft
< 800m
< 200 ft
Symbols :   Thunderstorms  Fog  Heavy snow  Heavy precipitations  Wind > 20 kt
SIGMETs :     Misc.  Thunderstorms  Icing  Turbulence  Mountain Waves  Volcanic Ashes






- Airport Elevation : 726 ft
- IATA code : DIJ


LFSD - Dijon

CURRENT METAR :
  • 141900Z AUTO 02003KT 9999 -RA FEW018/// OVC030/// ///TCU 05/04 Q0998

EXPIRED METARs :
  • 141830Z AUTO 05004KT 9999 -RA FEW006/// BKN017/// BKN029/// ///TCU 05/05 Q0998
  • 141800Z AUTO 06006KT 9999 -RA BKN005/// OVC016/// ///TCU 05/05 Q0998
  • 141730Z AUTO 04004KT 9000 -RA BKN004/// BKN009/// OVC015/// ///TCU 05/04 Q0998
  • 141700Z AUTO 04004KT 7000 RA OVC005/// ///TCU 05/04 Q0998
  • 141630Z AUTO 03004KT 8000 -RA OVC005/// ///TCU 05/04 Q0998

Expired Forecast.



MET'MAP, your aeronautical weather chart ! - Copyright ORBIFLY December 2007 - Disclaimer

ORBIFLY MET'MAP TEAM :

Programming & Development : Alexandra Zaïnal
Concept & Development : Baudouin d'Aumeries
Co-Development & Prog : Marc-Olivier Méhu
Technical & hardware support : Manuel Goepfert

Contact : metmap@orbifly.com




SOURCES & CREDITS :

   NOAA